| time (UTC) | temp F | wind direction | speed knots | gust knots | rain 1hr in | rain 24hr in | rain mn in | humidity % | barometer mb |
| 20260504082003 | 37 | 326 | 0.0 | 0.0 | 0.00 | 0.00 | 0.00 | 84 | 1014.0 |
| 20260504081524 | 37 | 310 | 0.0 | 0.0 | 0.00 | 0.00 | 0.00 | 84 | 1014.1 |
| 20260504081008 | 37 | 310 | 0.0 | 0.0 | 0.00 | 0.00 | 0.00 | 83 | 1014.1 |
| 20260504080509 | 37 | 310 | 0.0 | 0.0 | 0.00 | 0.00 | 0.00 | 83 | 1014.0 |
| 20260504050510 | 41 | 240 | 0.0 | 0.0 | 0.00 | 0.00 | 0.00 | 74 | 1014.1 |
| 20260504050016 | 40 | 240 | 0.0 | 0.0 | 0.00 | 0.00 | 0.00 | 74 | 1014.2 |
| 20260504045507 | 40 | 240 | 0.0 | 0.0 | 0.00 | 0.00 | 0.00 | 74 | 1014.2 |
| 20260504045007 | 40 | 240 | 0.0 | 0.0 | 0.00 | 0.00 | 0.00 | 75 | 1014.2 |
| 20260504044502 | 40 | 240 | 0.0 | 0.0 | 0.00 | 0.00 | 0.00 | 74 | 1014.1 |
| 20260504044003 | 40 | 240 | 0.0 | 0.0 | 0.00 | 0.00 | 0.00 | 73 | 1014.1 |
| 20260504043503 | 41 | 240 | 0.0 | 0.0 | 0.00 | 0.00 | 0.00 | 73 | 1014.1 |
| 20260504043009 | 41 | 240 | 0.0 | 0.0 | 0.00 | 0.00 | 0.00 | 73 | 1014.1 |
| 20260504042503 | 41 | 240 | 0.0 | 0.0 | 0.00 | 0.00 | 0.00 | 74 | 1014.1 |
| 20260504042006 | 41 | 240 | 0.0 | 0.0 | 0.00 | 0.00 | 0.00 | 72 | 1014.1 |
| 20260504041519 | 42 | 240 | 0.0 | 0.0 | 0.00 | 0.00 | 0.00 | 72 | 1014.0 |
| 20260504041005 | 42 | 240 | 0.0 | 0.0 | 0.00 | 0.00 | 0.00 | 71 | 1013.9 |
| 20260504040504 | 42 | 240 | 0.0 | 0.0 | 0.00 | 0.00 | 0.00 | 70 | 1013.9 |
| 20260504040004 | 42 | 240 | 0.0 | 0.0 | 0.00 | 0.00 | 0.00 | 70 | 1014.0 |
| 20260504035503 | 43 | 240 | 0.0 | 0.0 | 0.00 | 0.00 | 0.00 | 70 | 1013.9 |
| 20260504035005 | 42 | 240 | 0.0 | 0.0 | 0.00 | 0.00 | 0.00 | 69 | 1013.9 |
| 20260504034520 | 42 | 240 | 0.0 | 0.0 | 0.00 | 0.00 | 0.00 | 69 | 1013.9 |
| 20260504034002 | 42 | 240 | 0.0 | 0.0 | 0.00 | 0.00 | 0.00 | 70 | 1014.1 |
| 20260504033505 | 42 | 240 | 0.0 | 0.9 | 0.00 | 0.00 | 0.00 | 72 | 1014.0 |
| 20260504033035 | 42 | 240 | 0.0 | 0.9 | 0.00 | 0.00 | 0.00 | 72 | 1014.0 |
| 20260504032509 | 41 | 240 | 0.0 | 0.0 | 0.00 | 0.00 | 0.00 | 72 | 1013.8 |
| 20260504032003 | 41 | 240 | 0.0 | 0.0 | 0.00 | 0.00 | 0.00 | 73 | 1013.9 |
| 20260504031506 | 41 | 240 | 0.0 | 0.0 | 0.00 | 0.00 | 0.00 | 71 | 1013.8 |
| 20260504031005 | 42 | 240 | 0.0 | 0.0 | 0.00 | 0.00 | 0.00 | 70 | 1013.8 |
| 20260504030507 | 42 | 240 | 0.0 | 0.0 | 0.00 | 0.00 | 0.00 | 70 | 1013.7 |
| 20260504030017 | 42 | 240 | 0.0 | 0.0 | 0.00 | 0.00 | 0.00 | 69 | 1013.7 |
| 20260504025507 | 43 | 240 | 0.0 | 0.9 | 0.00 | 0.00 | 0.00 | 68 | 1013.7 |
| 20260504025007 | 43 | 240 | 0.9 | 0.9 | 0.00 | 0.00 | 0.00 | 69 | 1013.7 |
| 20260504024540 | 43 | 279 | 0.0 | 0.9 | 0.00 | 0.00 | 0.00 | 68 | 1013.7 |
| 20260504024007 | 43 | 279 | 0.0 | 0.9 | 0.00 | 0.00 | 0.00 | 68 | 1013.6 |
| 20260504023504 | 43 | 279 | 0.0 | 0.9 | 0.00 | 0.00 | 0.00 | 68 | 1013.7 |
| 20260504023008 | 43 | 279 | 0.0 | 0.9 | 0.00 | 0.00 | 0.00 | 68 | 1013.6 |
| 20260504022503 | 44 | 279 | 0.0 | 0.0 | 0.00 | 0.00 | 0.00 | 68 | 1013.6 |
| 20260504022007 | 44 | 279 | 0.0 | 0.0 | 0.00 | 0.00 | 0.00 | 66 | 1013.6 |
| 20260504021519 | 43 | 279 | 0.0 | 0.0 | 0.00 | 0.00 | 0.00 | 67 | 1013.6 |
| 20260504021005 | 43 | 279 | 0.0 | 0.0 | 0.00 | 0.00 | 0.00 | 67 | 1013.6 |
| 20260504020509 | 43 | 279 | 0.0 | 0.0 | 0.00 | 0.00 | 0.00 | 68 | 1013.6 |
| 20260504020026 | 43 | 279 | 0.0 | 0.0 | 0.00 | 0.00 | 0.00 | 68 | 1013.6 |
| 20260504015502 | 43 | 279 | 0.0 | 0.0 | 0.00 | 0.00 | 0.00 | 68 | 1013.5 |
| 20260504015003 | 43 | 279 | 0.0 | 0.0 | 0.00 | 0.00 | 0.00 | 66 | 1013.5 |
| 20260504014512 | 44 | 279 | 0.0 | 0.0 | 0.00 | 0.00 | 0.00 | 64 | 1013.5 |
| 20260504014005 | 44 | 279 | 0.0 | 0.0 | 0.00 | 0.00 | 0.00 | 62 | 1013.4 |
| 20260504013506 | 45 | 279 | 0.0 | 0.0 | 0.00 | 0.00 | 0.00 | 62 | 1013.4 |
| 20260504013023 | 46 | 279 | 0.0 | 0.0 | 0.00 | 0.00 | 0.00 | 61 | 1013.3 |
| 20260504012507 | 46 | 279 | 0.0 | 0.0 | 0.00 | 0.00 | 0.00 | 61 | 1013.4 |
| 20260504012008 | 47 | 279 | 0.0 | 0.0 | 0.00 | 0.00 | 0.00 | 61 | 1013.3 |
| 20260504011504 | 47 | 279 | 0.0 | 0.0 | 0.00 | 0.00 | 0.00 | 59 | 1013.2 |
| 20260504011003 | 47 | 279 | 0.0 | 0.0 | 0.00 | 0.00 | 0.00 | 58 | 1013.2 |
| 20260504010505 | 47 | 279 | 0.0 | 0.0 | 0.00 | 0.00 | 0.00 | 58 | 1013.2 |
| 20260504010014 | 48 | 279 | 0.0 | 0.0 | 0.00 | 0.00 | 0.00 | 57 | 1013.2 |
| 20260504005506 | 48 | 279 | 0.0 | 0.9 | 0.00 | 0.00 | 0.00 | 57 | 1013.2 |
| 20260504005008 | 48 | 279 | 0.0 | 0.9 | 0.00 | 0.00 | 0.00 | 58 | 1013.2 |
| 20260504004538 | 49 | 279 | 0.0 | 0.0 | 0.00 | 0.00 | 0.00 | 57 | 1013.2 |
| 20260504004005 | 49 | 279 | 0.0 | 0.0 | 0.00 | 0.00 | 0.00 | 56 | 1013.1 |
| 20260504003512 | 50 | 279 | 0.0 | 0.0 | 0.00 | 0.00 | 0.00 | 54 | 1013.1 |
| 20260504003006 | 50 | 279 | 0.0 | 0.9 | 0.00 | 0.00 | 0.00 | 54 | 1013.1 |
| 20260504002506 | 51 | 279 | 0.0 | 0.9 | 0.00 | 0.00 | 0.00 | 54 | 1013.1 |
| 20260504002005 | 52 | 279 | 0.0 | 0.9 | 0.00 | 0.00 | 0.00 | 50 | 1013.0 |
| 20260504001518 | 52 | 264 | 0.0 | 0.9 | 0.00 | 0.00 | 0.00 | 50 | 1012.9 |
| 20260504001010 | 53 | 264 | 0.0 | 1.7 | 0.00 | 0.00 | 0.00 | 50 | 1012.9 |
| 20260504000505 | 54 | 274 | 0.0 | 1.7 | 0.00 | 0.00 | 0.00 | 46 | 1012.9 |
| 20260504000027 | 55 | 236 | 0.9 | 2.6 | 0.00 | 0.00 | 0.00 | 45 | 1012.8 |
| 20260503235509 | 56 | 273 | 0.9 | 2.6 | 0.00 | 0.00 | 0.00 | 43 | 1012.8 |
| 20260503235002 | 56 | 283 | 0.9 | 4.3 | 0.00 | 0.00 | 0.00 | 42 | 1012.7 |
| 20260503234513 | 57 | 280 | 2.6 | 4.3 | 0.00 | 0.00 | 0.00 | 40 | 1012.6 |
| 20260503234005 | 57 | 277 | 1.7 | 5.2 | 0.00 | 0.00 | 0.00 | 41 | 1012.6 |
| 20260503233505 | 57 | 287 | 2.6 | 5.2 | 0.00 | 0.00 | 0.00 | 40 | 1012.5 |
| 20260503233024 | 58 | 304 | 2.6 | 4.3 | 0.00 | 0.00 | 0.00 | 40 | 1012.5 |
| 20260503232505 | 58 | 252 | 1.7 | 4.3 | 0.00 | 0.00 | 0.00 | 39 | 1012.5 |
| 20260503232008 | 58 | 264 | 2.6 | 4.3 | 0.00 | 0.00 | 0.00 | 39 | 1012.5 |
| 20260503231526 | 59 | 321 | 1.7 | 7.0 | 0.00 | 0.00 | 0.00 | 38 | 1012.5 |
| 20260503231005 | 59 | 279 | 2.6 | 7.0 | 0.00 | 0.00 | 0.00 | 39 | 1012.5 |
| 20260503230502 | 59 | 303 | 3.5 | 8.7 | 0.00 | 0.00 | 0.00 | 37 | 1012.5 |
| 20260503230013 | 59 | 297 | 2.6 | 8.7 | 0.00 | 0.00 | 0.00 | 37 | 1012.6 |
| 20260503225505 | 59 | 281 | 3.5 | 9.6 | 0.00 | 0.00 | 0.00 | 39 | 1012.5 |
| 20260503225008 | 59 | 281 | 5.2 | 9.6 | 0.00 | 0.00 | 0.00 | 37 | 1012.4 |
| 20260503224525 | 59 | 295 | 4.3 | 8.7 | 0.00 | 0.00 | 0.00 | 36 | 1012.4 |
| 20260503224009 | 60 | 194 | 5.2 | 8.7 | 0.00 | 0.00 | 0.00 | 35 | 1012.4 |
| 20260503223510 | 60 | 261 | 4.3 | 7.8 | 0.00 | 0.00 | 0.00 | 36 | 1012.4 |
| 20260503223029 | 60 | 307 | 3.5 | 9.6 | 0.00 | 0.00 | 0.00 | 38 | 1012.4 |
| 20260503222505 | 60 | 222 | 4.3 | 13.9 | 0.00 | 0.00 | 0.00 | 37 | 1012.4 |
| 20260503222005 | 60 | 311 | 6.1 | 13.9 | 0.00 | 0.00 | 0.00 | 34 | 1012.3 |
| 20260503221517 | 60 | 306 | 5.2 | 11.3 | 0.00 | 0.00 | 0.00 | 36 | 1012.3 |
| 20260503221002 | 60 | 323 | 4.3 | 9.6 | 0.00 | 0.00 | 0.00 | 37 | 1012.3 |
| 20260503220502 | 60 | 293 | 3.5 | 10.4 | 0.00 | 0.00 | 0.00 | 40 | 1012.4 |
| 20260503220003 | 60 | 316 | 5.2 | 14.8 | 0.00 | 0.00 | 0.00 | 34 | 1012.5 |
| 20260503215503 | 60 | 302 | 7.0 | 14.8 | 0.00 | 0.00 | 0.00 | 34 | 1012.5 |
| 20260503215002 | 60 | 316 | 4.3 | 11.3 | 0.00 | 0.00 | 0.00 | 36 | 1012.5 |
| 20260503214512 | 60 | 295 | 6.1 | 12.2 | 0.00 | 0.00 | 0.00 | 35 | 1012.5 |
| 20260503214005 | 60 | 276 | 5.2 | 12.2 | 0.00 | 0.00 | 0.00 | 38 | 1012.5 |
| 20260503213506 | 60 | 301 | 6.1 | 12.2 | 0.00 | 0.00 | 0.00 | 35 | 1012.5 |
| 20260503213006 | 60 | 288 | 3.5 | 10.4 | 0.00 | 0.00 | 0.00 | 34 | 1012.5 |
| 20260503212502 | 60 | 310 | 4.3 | 13.0 | 0.00 | 0.00 | 0.00 | 36 | 1012.5 |
| 20260503212003 | 60 | 314 | 5.2 | 13.0 | 0.00 | 0.00 | 0.00 | 38 | 1012.4 |
| 20260503211506 | 60 | 311 | 5.2 | 11.3 | 0.00 | 0.00 | 0.00 | 37 | 1012.4 |
| 20260503211003 | 59 | 263 | 6.1 | 14.8 | 0.00 | 0.00 | 0.00 | 39 | 1012.3 |
| 20260503210503 | 59 | 330 | 6.1 | 14.8 | 0.00 | 0.00 | 0.00 | 36 | 1012.4 |
| 20260503210014 | 59 | 311 | 7.8 | 14.8 | 0.00 | 0.00 | 0.00 | 36 | 1012.3 |
| 20260503205503 | 60 | 298 | 7.0 | 13.9 | 0.00 | 0.00 | 0.00 | 38 | 1012.3 |
| 20260503205002 | 60 | 302 | 6.1 | 13.0 | 0.00 | 0.00 | 0.00 | 35 | 1012.4 |
| 20260503204503 | 59 | 337 | 7.8 | 14.8 | 0.00 | 0.00 | 0.00 | 38 | 1012.4 |
| 20260503204003 | 60 | 288 | 7.0 | 14.8 | 0.00 | 0.00 | 0.00 | 38 | 1012.3 |
| 20260503203503 | 60 | 323 | 7.0 | 13.9 | 0.00 | 0.00 | 0.00 | 38 | 1012.3 |
| 20260503203008 | 60 | 283 | 3.5 | 11.3 | 0.00 | 0.00 | 0.00 | 39 | 1012.3 |
| 20260503202503 | 60 | 313 | 6.1 | 11.3 | 0.00 | 0.00 | 0.00 | 34 | 1012.3 |
| 20260503202007 | 60 | 309 | 6.1 | 10.4 | 0.00 | 0.00 | 0.00 | 38 | 1012.4 |
| 20260503201520 | 60 | 297 | 4.3 | 13.9 | 0.00 | 0.00 | 0.00 | 37 | 1012.4 |
| 20260503201005 | 59 | 293 | 7.0 | 13.9 | 0.00 | 0.00 | 0.00 | 37 | 1012.5 |
| 20260503200502 | 59 | 295 | 7.8 | 13.9 | 0.00 | 0.00 | 0.00 | 37 | 1012.5 |
| 20260503200003 | 58 | 312 | 3.5 | 14.8 | 0.00 | 0.00 | 0.00 | 41 | 1012.8 |
| 20260503195504 | 58 | 320 | 7.0 | 17.4 | 0.00 | 0.00 | 0.00 | 36 | 1012.9 |
| 20260503195005 | 59 | 310 | 7.0 | 17.4 | 0.00 | 0.00 | 0.00 | 33 | 1012.9 |
| 20260503194511 | 59 | 304 | 6.1 | 11.3 | 0.00 | 0.00 | 0.00 | 39 | 1012.9 |
| 20260503194004 | 59 | 330 | 6.1 | 15.6 | 0.00 | 0.00 | 0.00 | 37 | 1012.9 |
| 20260503193507 | 59 | 311 | 4.3 | 15.6 | 0.00 | 0.00 | 0.00 | 39 | 1013.1 |
| 20260503193035 | 60 | 309 | 5.2 | 10.4 | 0.00 | 0.00 | 0.00 | 41 | 1013.0 |
| 20260503192503 | 58 | 324 | 2.6 | 12.2 | 0.00 | 0.00 | 0.00 | 37 | 1013.1 |
| 20260503192003 | 58 | 315 | 7.8 | 13.0 | 0.00 | 0.00 | 0.00 | 36 | 1013.2 |
| 20260503191503 | 58 | 317 | 3.5 | 13.0 | 0.00 | 0.00 | 0.00 | 39 | 1013.2 |
| 20260503191002 | 57 | 327 | 4.3 | 13.9 | 0.00 | 0.00 | 0.00 | 45 | 1013.3 |
| 20260503190503 | 58 | 315 | 7.0 | 13.9 | 0.00 | 0.00 | 0.00 | 36 | 1013.3 |
| 20260503190024 | 57 | 289 | 3.5 | 13.0 | 0.00 | 0.00 | 0.00 | 38 | 1013.3 |
| 20260503185507 | 57 | 297 | 5.2 | 14.8 | 0.00 | 0.00 | 0.00 | 42 | 1013.4 |
| 20260503185006 | 57 | 284 | 6.1 | 14.8 | 0.00 | 0.00 | 0.00 | 36 | 1013.5 |
| 20260503184504 | 57 | 309 | 6.1 | 13.0 | 0.00 | 0.00 | 0.00 | 38 | 1013.3 |
| 20260503184003 | 56 | 236 | 7.0 | 14.8 | 0.00 | 0.00 | 0.00 | 40 | 1013.5 |
| 20260503183503 | 55 | 300 | 8.7 | 14.8 | 0.00 | 0.00 | 0.00 | 40 | 1013.7 |
| 20260503183007 | 55 | 268 | 7.8 | 12.2 | 0.00 | 0.00 | 0.00 | 36 | 1013.7 |
| 20260503182505 | 55 | 301 | 6.1 | 12.2 | 0.00 | 0.00 | 0.00 | 40 | 1013.7 |
| 20260503182008 | 57 | 309 | 6.1 | 13.0 | 0.00 | 0.00 | 0.00 | 40 | 1013.7 |
| 20260503181517 | 56 | 295 | 9.6 | 13.0 | 0.00 | 0.00 | 0.00 | 38 | 1013.7 |
| 20260503181009 | 56 | 289 | 4.3 | 13.0 | 0.00 | 0.00 | 0.00 | 40 | 1013.7 |
| 20260503180506 | 56 | 300 | 5.2 | 13.0 | 0.00 | 0.00 | 0.00 | 42 | 1013.8 |
| 20260503180004 | 55 | 288 | 4.3 | 11.3 | 0.00 | 0.00 | 0.00 | 41 | 1013.7 |
| 20260503175504 | 55 | 313 | 7.0 | 12.2 | 0.00 | 0.00 | 0.00 | 39 | 1013.8 |
| 20260503175003 | 55 | 312 | 6.1 | 12.2 | 0.00 | 0.00 | 0.00 | 44 | 1014.0 |
| 20260503174511 | 54 | 293 | 5.2 | 14.8 | 0.00 | 0.00 | 0.00 | 43 | 1013.9 |
| 20260503174006 | 54 | 319 | 6.1 | 14.8 | 0.00 | 0.00 | 0.00 | 44 | 1014.1 |
| 20260503173507 | 55 | 310 | 5.2 | 11.3 | 0.00 | 0.00 | 0.00 | 45 | 1013.9 |
| 20260503173022 | 54 | 297 | 6.1 | 12.2 | 0.00 | 0.00 | 0.00 | 42 | 1014.0 |
| 20260503172509 | 55 | 268 | 7.8 | 13.0 | 0.00 | 0.00 | 0.00 | 45 | 1014.1 |
| 20260503172002 | 55 | 307 | 6.1 | 18.2 | 0.00 | 0.00 | 0.00 | 42 | 1014.2 |
| 20260503171503 | 55 | 290 | 7.0 | 18.2 | 0.00 | 0.00 | 0.00 | 42 | 1014.2 |
| 20260503171001 | 55 | 306 | 4.3 | 15.6 | 0.00 | 0.00 | 0.00 | 43 | 1014.3 |
| 20260503170505 | 54 | 306 | 6.1 | 16.5 | 0.00 | 0.00 | 0.00 | 45 | 1014.2 |
| 20260503151002 | 50 | 283 | 7.8 | 13.9 | 0.00 | 0.00 | 0.00 | 41 | 1015.1 |
| 20260503150505 | 49 | 285 | 5.2 | 13.0 | 0.00 | 0.00 | 0.00 | 42 | 1015.1 |
| 20260503131004 | 46 | 276 | 5.2 | 12.2 | 0.00 | 0.00 | 0.00 | 56 | 1015.4 |
| 20260503130503 | 45 | 274 | 4.3 | 11.3 | 0.00 | 0.00 | 0.00 | 56 | 1015.4 |
| 20260503110507 | 41 | 314 | 2.6 | 6.1 | 0.00 | 0.00 | 0.00 | 66 | 1014.4 |